| time (UTC) | temp F | wind direction | speed MPH | gust MPH | rain 1hr in | rain 24hr in | rain mn in | humidity % | barometer mb |
| 20260504050528 | 214 | 292 | 4.0 | 0.0 | 0.00 | 0.00 | 0.00 | 21 | |
| 20260504050019 | 214 | 282 | 4.0 | 0.0 | 0.00 | 0.00 | 0.00 | 21 | |
| 20260504045510 | 214 | 270 | 4.0 | 0.0 | 0.00 | 0.00 | 0.00 | 21 | |
| 20260504045002 | 214 | 295 | 3.0 | 0.0 | 0.00 | 0.00 | 0.00 | 21 | |
| 20260504044453 | 214 | 294 | 5.0 | 0.0 | 0.00 | 0.00 | 0.00 | 21 | |
| 20260504043944 | 214 | 280 | 4.0 | 0.0 | 0.00 | 0.00 | 0.00 | 21 | |
| 20260504043421 | 214 | 280 | 4.0 | 0.0 | 0.00 | 0.00 | 0.00 | 21 | |
| 20260504042913 | 214 | 302 | 3.0 | 0.0 | 0.00 | 0.00 | 0.00 | 21 | |
| 20260504042405 | 214 | 319 | 7.0 | 0.0 | 0.00 | 0.00 | 0.00 | 21 | |
| 20260504041856 | 214 | 279 | 3.0 | 0.0 | 0.00 | 0.00 | 0.00 | 21 | |
| 20260504041348 | 214 | 316 | 3.0 | 0.0 | 0.00 | 0.00 | 0.00 | 21 | |
| 20260504040839 | 214 | 262 | 4.0 | 0.0 | 0.00 | 0.00 | 0.00 | 21 | |
| 20260504040331 | 214 | 262 | 3.0 | 0.0 | 0.00 | 0.00 | 0.00 | 21 | |
| 20260504035822 | 214 | 255 | 4.0 | 0.0 | 0.00 | 0.00 | 0.00 | 21 | |
| 20260504035314 | 214 | 247 | 4.0 | 0.0 | 0.00 | 0.00 | 0.00 | 21 | |
| 20260504034805 | 214 | 258 | 5.0 | 0.0 | 0.00 | 0.00 | 0.00 | 21 | |
| 20260504034256 | 214 | 268 | 5.0 | 0.0 | 0.00 | 0.00 | 0.00 | 21 | |
| 20260504033748 | 214 | 240 | 3.0 | 0.0 | 0.00 | 0.00 | 0.00 | 21 | |
| 20260504033240 | 214 | 258 | 2.0 | 0.0 | 0.00 | 0.00 | 0.00 | 21 | |
| 20260504032731 | 214 | 269 | 3.0 | 0.0 | 0.00 | 0.00 | 0.00 | 21 | |
| 20260504032222 | 214 | 278 | 3.0 | 0.0 | 0.00 | 0.00 | 0.00 | 21 | |
| 20260504031714 | 214 | 215 | 1.0 | 0.0 | 0.00 | 0.00 | 0.00 | 21 | |
| 20260504031205 | 214 | 284 | 3.0 | 0.0 | 0.00 | 0.00 | 0.00 | 21 | |
| 20260504030657 | 214 | 305 | 3.0 | 0.0 | 0.00 | 0.00 | 0.00 | 21 | |
| 20260504030148 | 214 | 270 | 3.0 | 0.0 | 0.00 | 0.00 | 0.00 | 21 | |
| 20260504025640 | 214 | 273 | 3.0 | 0.0 | 0.00 | 0.00 | 0.00 | 21 | |
| 20260504025131 | 214 | 326 | 2.0 | 0.0 | 0.00 | 0.00 | 0.00 | 21 | |
| 20260504024623 | 214 | 273 | 4.0 | 0.0 | 0.00 | 0.00 | 0.00 | 21 | |
| 20260504024114 | 214 | 286 | 4.0 | 0.0 | 0.00 | 0.00 | 0.00 | 21 | |
| 20260504023606 | 214 | 270 | 3.0 | 0.0 | 0.00 | 0.00 | 0.00 | 21 | |
| 20260504023058 | 214 | 278 | 3.0 | 0.0 | 0.00 | 0.00 | 0.00 | 21 | |
| 20260504022550 | 214 | 280 | 4.0 | 0.0 | 0.00 | 0.00 | 0.00 | 21 | |
| 20260504022041 | 214 | 276 | 4.0 | 0.0 | 0.00 | 0.00 | 0.00 | 21 | |
| 20260504021532 | 214 | 293 | 3.0 | 0.0 | 0.00 | 0.00 | 0.00 | 21 | |
| 20260504021023 | 214 | 265 | 2.0 | 0.0 | 0.00 | 0.00 | 0.00 | 21 | |
| 20260504020515 | 214 | 275 | 2.0 | 0.0 | 0.00 | 0.00 | 0.00 | 21 | |
| 20260504020006 | 214 | 284 | 2.0 | 0.0 | 0.00 | 0.00 | 0.00 | 21 | |
| 20260504015457 | 214 | 288 | 2.0 | 0.0 | 0.00 | 0.00 | 0.00 | 21 | |
| 20260504014948 | 214 | 254 | 2.0 | 0.0 | 0.00 | 0.00 | 0.00 | 21 | |
| 20260504014440 | 214 | 297 | 1.0 | 0.0 | 0.00 | 0.00 | 0.00 | 21 | |
| 20260504013931 | 214 | 245 | 2.0 | 0.0 | 0.00 | 0.00 | 0.00 | 21 | |
| 20260504013422 | 214 | 256 | 1.0 | 0.0 | 0.00 | 0.00 | 0.00 | 21 | |
| 20260504012913 | 214 | 252 | 1.0 | 0.0 | 0.00 | 0.00 | 0.00 | 21 | |
| 20260504012404 | 214 | 261 | 1.0 | 0.0 | 0.00 | 0.00 | 0.00 | 21 | |
| 20260504011856 | 214 | 266 | 1.0 | 0.0 | 0.00 | 0.00 | 0.00 | 21 | |
| 20260504011348 | 214 | 250 | 1.0 | 0.0 | 0.00 | 0.00 | 0.00 | 21 | |
| 20260504010839 | 214 | 268 | 1.0 | 0.0 | 0.00 | 0.00 | 0.00 | 21 | |
| 20260504010330 | 214 | 263 | 1.0 | 0.0 | 0.00 | 0.00 | 0.00 | 21 | |
| 20260504005821 | 214 | 279 | 2.0 | 0.0 | 0.00 | 0.00 | 0.00 | 21 | |
| 20260504005312 | 214 | 265 | 1.0 | 0.0 | 0.00 | 0.00 | 0.00 | 21 | |
| 20260504004804 | 214 | 298 | 1.0 | 0.0 | 0.00 | 0.00 | 0.00 | 21 | |
| 20260504004255 | 214 | 286 | 2.0 | 0.0 | 0.00 | 0.00 | 0.00 | 21 | |
| 20260504003746 | 214 | 274 | 2.0 | 0.0 | 0.00 | 0.00 | 0.00 | 21 | |
| 20260504003238 | 214 | 300 | 1.0 | 0.0 | 0.00 | 0.00 | 0.00 | 21 | |
| 20260504002729 | 214 | 291 | 2.0 | 0.0 | 0.00 | 0.00 | 0.00 | 21 | |
| 20260504002221 | 214 | 259 | 2.0 | 0.0 | 0.00 | 0.00 | 0.00 | 21 | |
| 20260504001712 | 214 | 279 | 2.0 | 0.0 | 0.00 | 0.00 | 0.00 | 21 | |
| 20260504001203 | 214 | 272 | 3.0 | 0.0 | 0.00 | 0.00 | 0.00 | 21 | |
| 20260504000655 | 214 | 278 | 2.0 | 0.0 | 0.00 | 0.00 | 0.00 | 21 | |
| 20260504000147 | 214 | 245 | 2.0 | 0.0 | 0.00 | 0.00 | 0.00 | 21 | |
| 20260503235638 | 214 | 266 | 3.0 | 0.0 | 0.00 | 0.00 | 0.00 | 21 | |
| 20260503235130 | 214 | 264 | 4.0 | 0.0 | 0.00 | 0.00 | 0.00 | 21 | |
| 20260503234621 | 214 | 277 | 3.0 | 0.0 | 0.00 | 0.00 | 0.00 | 21 | |
| 20260503234113 | 214 | 224 | 2.0 | 0.0 | 0.00 | 0.00 | 0.00 | 21 | |
| 20260503233604 | 214 | 269 | 3.0 | 0.0 | 0.00 | 0.00 | 0.00 | 21 | |
| 20260503233055 | 214 | 260 | 3.0 | 0.0 | 0.00 | 0.00 | 0.00 | 21 | |
| 20260503232546 | 214 | 264 | 3.0 | 0.0 | 0.00 | 0.00 | 0.00 | 21 | |
| 20260503232038 | 214 | 262 | 4.0 | 0.0 | 0.00 | 0.00 | 0.00 | 21 | |
| 20260503231530 | 214 | 278 | 4.0 | 0.0 | 0.00 | 0.00 | 0.00 | 21 | |
| 20260503231021 | 214 | 272 | 2.0 | 0.0 | 0.00 | 0.00 | 0.00 | 21 | |
| 20260503230513 | 214 | 277 | 2.0 | 0.0 | 0.00 | 0.00 | 0.00 | 21 | |
| 20260503230004 | 214 | 284 | 3.0 | 0.0 | 0.00 | 0.00 | 0.00 | 21 | |
| 20260503225456 | 214 | 276 | 2.0 | 0.0 | 0.00 | 0.00 | 0.00 | 21 | |
| 20260503224947 | 214 | 266 | 1.0 | 0.0 | 0.00 | 0.00 | 0.00 | 21 | |
| 20260503224439 | 214 | 250 | 1.0 | 0.0 | 0.00 | 0.00 | 0.00 | 21 | |
| 20260503223930 | 214 | 278 | 3.0 | 0.0 | 0.00 | 0.00 | 0.00 | 21 | |
| 20260503223422 | 214 | 287 | 2.0 | 0.0 | 0.00 | 0.00 | 0.00 | 21 | |
| 20260503222913 | 214 | 276 | 4.0 | 0.0 | 0.00 | 0.00 | 0.00 | 21 | |
| 20260503222405 | 214 | 275 | 3.0 | 0.0 | 0.00 | 0.00 | 0.00 | 21 | |
| 20260503221856 | 214 | 279 | 3.0 | 0.0 | 0.00 | 0.00 | 0.00 | 21 | |
| 20260503221348 | 214 | 279 | 4.0 | 0.0 | 0.00 | 0.00 | 0.00 | 21 | |
| 20260503220839 | 214 | 270 | 4.0 | 0.0 | 0.00 | 0.00 | 0.00 | 21 | |
| 20260503220330 | 214 | 266 | 3.0 | 0.0 | 0.00 | 0.00 | 0.00 | 21 | |
| 20260503215822 | 214 | 264 | 4.0 | 0.0 | 0.00 | 0.00 | 0.00 | 21 | |
| 20260503215314 | 214 | 265 | 3.0 | 0.0 | 0.00 | 0.00 | 0.00 | 21 | |
| 20260503214806 | 214 | 285 | 3.0 | 0.0 | 0.00 | 0.00 | 0.00 | 21 | |
| 20260503214257 | 214 | 278 | 2.0 | 0.0 | 0.00 | 0.00 | 0.00 | 21 | |
| 20260503213749 | 214 | 269 | 3.0 | 0.0 | 0.00 | 0.00 | 0.00 | 21 | |
| 20260503213240 | 214 | 279 | 3.0 | 0.0 | 0.00 | 0.00 | 0.00 | 21 | |
| 20260503212732 | 214 | 286 | 2.0 | 0.0 | 0.00 | 0.00 | 0.00 | 21 | |
| 20260503212224 | 214 | 273 | 2.0 | 0.0 | 0.00 | 0.00 | 0.00 | 21 | |
| 20260503211715 | 214 | 270 | 3.0 | 0.0 | 0.00 | 0.00 | 0.00 | 21 | |
| 20260503211206 | 214 | 273 | 3.0 | 0.0 | 0.00 | 0.00 | 0.00 | 21 | |
| 20260503210658 | 214 | 275 | 3.0 | 0.0 | 0.00 | 0.00 | 0.00 | 21 | |
| 20260503210149 | 214 | 287 | 3.0 | 0.0 | 0.00 | 0.00 | 0.00 | 21 | |
| 20260503205640 | 214 | 336 | 3.0 | 0.0 | 0.00 | 0.00 | 0.00 | 21 | |
| 20260503205132 | 214 | 277 | 3.0 | 0.0 | 0.00 | 0.00 | 0.00 | 21 | |
| 20260503204623 | 214 | 267 | 3.0 | 0.0 | 0.00 | 0.00 | 0.00 | 21 | |
| 20260503204114 | 214 | 274 | 3.0 | 0.0 | 0.00 | 0.00 | 0.00 | 21 | |
| 20260503203606 | 214 | 272 | 4.0 | 0.0 | 0.00 | 0.00 | 0.00 | 21 | |
| 20260503203058 | 214 | 269 | 3.0 | 0.0 | 0.00 | 0.00 | 0.00 | 21 | |
| 20260503202550 | 214 | 299 | 4.0 | 0.0 | 0.00 | 0.00 | 0.00 | 21 | |
| 20260503202041 | 214 | 295 | 2.0 | 0.0 | 0.00 | 0.00 | 0.00 | 21 | |
| 20260503201533 | 214 | 277 | 3.0 | 0.0 | 0.00 | 0.00 | 0.00 | 21 | |
| 20260503201025 | 214 | 277 | 3.0 | 0.0 | 0.00 | 0.00 | 0.00 | 21 | |
| 20260503200517 | 214 | 269 | 3.0 | 0.0 | 0.00 | 0.00 | 0.00 | 21 | |
| 20260503200008 | 214 | 273 | 2.0 | 0.0 | 0.00 | 0.00 | 0.00 | 21 | |
| 20260503195500 | 214 | 279 | 3.0 | 0.0 | 0.00 | 0.00 | 0.00 | 21 | |
| 20260503194952 | 214 | 274 | 3.0 | 0.0 | 0.00 | 0.00 | 0.00 | 21 | |
| 20260503194443 | 214 | 284 | 3.0 | 0.0 | 0.00 | 0.00 | 0.00 | 21 | |
| 20260503193935 | 214 | 298 | 3.0 | 0.0 | 0.00 | 0.00 | 0.00 | 21 | |
| 20260503193426 | 214 | 310 | 2.0 | 0.0 | 0.00 | 0.00 | 0.00 | 21 | |
| 20260503192918 | 214 | 284 | 3.0 | 0.0 | 0.00 | 0.00 | 0.00 | 21 | |
| 20260503192409 | 214 | 285 | 3.0 | 0.0 | 0.00 | 0.00 | 0.00 | 21 | |
| 20260503191901 | 214 | 273 | 3.0 | 0.0 | 0.00 | 0.00 | 0.00 | 21 | |
| 20260503191353 | 214 | 336 | 2.0 | 0.0 | 0.00 | 0.00 | 0.00 | 21 | |
| 20260503190845 | 214 | 287 | 3.0 | 0.0 | 0.00 | 0.00 | 0.00 | 21 | |
| 20260503190336 | 214 | 279 | 3.0 | 0.0 | 0.00 | 0.00 | 0.00 | 21 | |
| 20260503185828 | 214 | 274 | 3.0 | 0.0 | 0.00 | 0.00 | 0.00 | 21 | |
| 20260503185320 | 214 | 282 | 3.0 | 0.0 | 0.00 | 0.00 | 0.00 | 21 | |
| 20260503184811 | 214 | 279 | 3.0 | 0.0 | 0.00 | 0.00 | 0.00 | 21 | |
| 20260503184302 | 214 | 334 | 2.0 | 0.0 | 0.00 | 0.00 | 0.00 | 21 | |
| 20260503183754 | 214 | 311 | 2.0 | 0.0 | 0.00 | 0.00 | 0.00 | 21 | |
| 20260503183246 | 214 | 297 | 2.0 | 0.0 | 0.00 | 0.00 | 0.00 | 21 | |
| 20260503182738 | 214 | 273 | 1.0 | 0.0 | 0.00 | 0.00 | 0.00 | 21 | |
| 20260503182229 | 214 | 294 | 2.0 | 0.0 | 0.00 | 0.00 | 0.00 | 21 | |
| 20260503181721 | 214 | 288 | 1.0 | 0.0 | 0.00 | 0.00 | 0.00 | 21 | |
| 20260503181212 | 214 | 282 | 2.0 | 0.0 | 0.00 | 0.00 | 0.00 | 21 | |
| 20260503180156 | 214 | 277 | 2.0 | 0.0 | 0.00 | 0.00 | 0.00 | 21 | |
| 20260503175648 | 214 | 285 | 2.0 | 0.0 | 0.00 | 0.00 | 0.00 | 21 | |
| 20260503174631 | 214 | 251 | 1.0 | 0.0 | 0.00 | 0.00 | 0.00 | 21 | |
| 20260503174119 | 214 | 251 | 1.0 | 0.0 | 0.00 | 0.00 | 0.00 | 21 | |
| 20260503173610 | 214 | 257 | 1.0 | 0.0 | 0.00 | 0.00 | 0.00 | 21 | |
| 20260503173101 | 214 | 249 | 1.0 | 0.0 | 0.00 | 0.00 | 0.00 | 21 | |
| 20260503172553 | 214 | 271 | 2.0 | 0.0 | 0.00 | 0.00 | 0.00 | 21 | |
| 20260503172039 | 214 | 271 | 2.0 | 0.0 | 0.00 | 0.00 | 0.00 | 21 | |
| 20260503171531 | 214 | 275 | 1.0 | 0.0 | 0.00 | 0.00 | 0.00 | 21 | |
| 20260503171022 | 214 | 289 | 2.0 | 0.0 | 0.00 | 0.00 | 0.00 | 21 | |
| 20260503170510 | 214 | 289 | 2.0 | 0.0 | 0.00 | 0.00 | 0.00 | 21 | |
| 20260503150626 | 91 | 291 | 3.0 | 0.0 | 0.00 | 0.00 | 0.00 | 29 | |
| 20260503150117 | 91 | 291 | 4.0 | 0.0 | 0.00 | 0.00 | 0.00 | 29 |